Location: Unspecified
(0.0000°N, 0.0000°E)
Time: 13:37:49
(UTC+00:00)

JUGNU - Pass Details

Date: 23 February 2020
Orbit: 836 x 864 km, 20.0° (Epoch: 01 April)

Event Time Altitude Azimuth Distance (km) Brightness Sun altitude
Rises 19:15:33 0° 287° (WNW) 3,375 ? -15.3°
Reaches altitude 10° 19:18:07 10° 285° (WNW) 2,438 ? -15.9°
Maximum altitude 19:23:57 72° 202° (SSW) 873 ? -17.4°
Enters shadow 19:27:49 22° 121° (ESE) 1,744 ? -18.3°
